Theta_e
287 287 287 287 287 287 287 287 286 286 286 286 286 286 286 286 287 287 287 286 287 287 287 287 287 287 287 287 287 287 287 286 286 286 286 285 285 285 285 286 288 289 290 291 291 291 290 290 291 291 291 291 291 292 292 292 292 292 292 291 291 291 290 290 290 291 292 292 293 293 294 295 295 296 297 297 296 294 293 292 292 291 291 291 290
287 287 287 287 287 287 287 287 287 286 286 286 286 286 286 286 286 286 286 286 286 286 286 286 286 286 287 287 287 287 287 287 287 287 287 287 286 286 285 285 285 285 287 288 290 290 290 290 290 290 290 290 290 291 291 291 291 291 291 291 291 291 290 290 289 290 291 291 292 292 293 294 294 295 295 296 296 295 294 293 292 291 291 291 290
287 287 287 287 287 287 287 287 287 287 286 286 286 286 286 286 286 286 286 286 286 286 286 286 286 286 286 286 286 286 287 287 287 287 287 287 287 287 286 286 285 284 284 284 286 287 288 289 290 290 290 289 289 290 290 290 290 291 291 291 290 290 290 290 289 289 290 291 291 292 292 293 293 294 295 295 296 295 295 294 293 292 291 291 291
288 288 287 287 287 287 287 287 287 286 286 286 286 286 286 286 285 285 285 285 285 285 285 285 285 285 285 285 285 285 286 286 286 286 286 286 286 286 286 286 286 285 285 284 284 284 285 286 287 288 289 289 289 289 289 289 290 290 290 290 290 290 290 290 289 289 289 290 290 291 291 292 293 293 294 294 294 293 293 293 293 291 291 291 290
288 288 288 288 287 287 287 287 286 286 286 286 286 286 285 285 285 285 285 285 284 284 284 284 284 284 284 284 284 284 284 284 284 285 285 285 285 285 285 285 286 286 286 285 285 284 284 284 284 285 287 288 289 289 289 289 289 289 289 289 289 289 289 289 289 289 289 288 289 290 290 291 291 292 293 292 292 291 291 291 291 290 290 290 290
289 289 289 289 288 288 288 288 287 287 286 286 286 286 286 285 285 285 285 285 284 284 284 284 284 284 283 283 283 283 283 283 283 283 284 284 284 284 284 284 284 285 285 285 285 285 285 284 284 284 284 286 287 288 288 288 288 288 288 289 289 289 289 289 289 289 288 288 288 289 289 289 290 291 291 292 291 290 289 289 289 289 289 289 289
289 289 289 289 289 289 289 289 288 288 287 287 287 287 286 286 286 286 286 285 285 284 284 284 284 283 283 283 283 283 283 283 283 282 282 283 283 283 283 283 283 284 284 284 285 285 285 285 285 285 284 284 285 285 287 288 288 288 288 288 288 288 288 288 288 288 288 288 288 288 288 288 289 289 290 291 291 290 289 288 288 288 288 288 288
289 289 289 289 289 289 289 289 288 287 287 287 287 287 286 286 286 285 285 285 284 284 284 283 283 283 283 283 282 282 282 282 282 282 282 282 282 282 282 282 283 283 283 284 284 284 284 284 285 285 285 285 284 284 285 286 287 288 288 288 288 288 288 288 288 288 288 288 288 288 288 288 288 288 289 289 288 288 288 287 287 287 287 287 287
289 289 289 288 288 288 288 288 287 287 286 286 286 286 286 285 285 284 284 284 283 283 283 282 282 282 282 282 282 282 282 282 282 281 281 281 282 282 282 282 283 283 283 283 284 284 284 284 284 284 285 285 285 284 284 284 286 287 288 288 287 287 287 287 287 287 288 288 287 288 288 287 287 287 287 287 287 287 288 287 287 288 287 287 287
289 289 288 287 287 286 286 286 286 286 285 285 285 284 284 284 283 283 283 282 282 282 281 281 281 281 281 281 281 282 281 281 281 281 281 282 282 282 282 283 283 283 283 283 283 283 283 283 284 284 284 284 284 285 284 284 284 285 286 287 287 288 287 287 287 287 287 287 288 288 288 287 287 287 286 286 287 287 287 287 287 287 287 286 286
287 287 286 285 285 284 284 284 284 283 283 282 282 282 281 281 281 281 281 281 281 280 280 280 280 280 280 280 281 281 281 281 281 281 281 282 282 282 282 282 282 282 283 283 283 283 283 283 283 283 284 284 284 284 284 284 284 284 284 285 286 287 288 287 287 288 288 288 288 288 288 288 288 288 287 287 287 287 287 287 287 287 286 286 286
284 284 283 283 282 282 281 281 280 280 280 280 280 279 279 279 279 279 279 278 278 278 278 278 278 278 279 279 279 279 279 279 279 280 281 281 281 281 281 282 282 282 282 282 282 283 283 283 283 283 283 283 284 284 284 284 284 284 284 284 285 286 287 288 288 288 288 288 288 288 288 288 288 288 288 287 287 286 287 286 286 286 286 286 286
282 281 280 280 279 279 279 278 278 278 278 278 277 277 277 277 276 276 276 276 276 276 276 276 276 276 276 277 277 277 277 277 278 279 280 280 280 281 281 281 281 281 281 281 282 282 282 282 283 283 283 283 283 283 284 284 284 284 284 284 284 285 286 287 288 288 288 288 288 288 288 288 288 288 288 288 287 286 286 286 286 286 286 286 287
280 279 278 277 277 277 277 277 276 276 276 275 275 275 274 274 274 273 273 273 273 274 274 274 274 274 274 275 275 275 275 275 276 277 278 279 279 279 280 280 280 280 280 280 281 281 281 281 282 282 282 283 283 283 283 283 283 284 284 284 284 284 284 286 287 287 288 288 288 288 289 288 288 288 288 288 287 287 286 286 286 286 286 287 287
278 277 277 276 276 276 275 275 275 274 274 273 273 272 272 271 271 271 271 271 271 271 271 271 272 272 272 272 272 272 273 273 274 275 276 276 277 278 278 278 278 279 279 279 279 280 280 280 281 281 282 282 282 283 283 283 283 283 283 283 284 284 284 284 285 286 287 288 288 288 288 288 289 288 288 288 288 287 287 287 287 287 286 287 287
276 275 275 275 274 274 274 273 272 272 271 271 270 270 270 270 269 269 269 269 269 269 269 269 269 269 269 269 270 270 270 271 272 273 274 274 275 276 276 276 276 277 277 278 278 279 279 280 280 280 281 281 281 282 282 283 283 283 283 283 283 284 284 284 284 284 286 287 287 288 288 288 288 288 288 288 288 287 287 287 287 286 286 286 286
274 274 273 273 272 272 271 271 270 270 270 269 269 269 268 268 268 267 267 267 267 267 267 267 267 267 267 267 267 267 268 268 270 271 271 272 273 273 273 274 274 275 275 276 276 277 278 278 279 279 279 280 280 281 282 282 283 283 283 283 283 284 284 284 284 284 285 286 286 287 287 287 288 288 288 288 288 288 287 286 286 286 285 285 285
272 272 271 271 270 269 269 269 269 268 268 268 268 267 267 266 266 265 265 265 265 265 265 265 265 265 265 265 265 266 266 267 268 269 269 270 271 272 272 272 273 273 274 274 275 275 276 277 277 278 279 279 279 280 281 282 282 283 283 283 283 284 284 284 284 285 285 285 286 287 287 287 287 287 288 288 288 289 287 286 286 286 285 285 285
271 270 269 268 268 268 267 267 267 267 267 266 266 266 265 264 264 264 263 263 263 263 263 263 263 263 263 264 264 265 265 265 266 267 268 269 270 271 272 272 272 273 273 274 275 275 275 276 276 277 277 278 279 279 280 281 282 282 282 283 283 283 284 284 284 285 285 285 286 286 286 287 287 287 287 287 288 288 288 288 287 286 285 285 285
268 268 267 267 266 266 266 266 265 265 265 265 264 264 263 263 263 262 262 262 262 262 262 262 262 263 263 263 263 264 264 264 265 266 267 268 269 270 271 271 272 272 273 273 274 274 275 275 276 276 276 277 278 278 279 280 281 282 282 283 283 283 283 284 284 284 285 285 285 286 286 286 286 286 287 287 287 287 288 288 288 287 286 286 285
266 266 266 265 265 265 265 264 264 264 263 263 263 262 262 262 262 262 262 262 261 261 262 262 262 262 262 262 263 263 263 264 264 265 266 267 268 269 270 270 270 271 271 272 273 273 274 275 275 275 276 277 277 278 279 279 280 281 282 283 283 283 284 284 284 284 285 285 285 285 286 286 286 286 286 286 286 286 287 287 288 287 286 286 286
265 264 264 264 264 264 264 263 263 263 262 262 262 262 262 261 261 261 261 261 261 261 261 261 261 262 262 262 262 262 263 263 264 264 265 266 267 268 269 269 270 270 271 271 272 272 272 273 273 274 275 276 277 278 279 279 280 281 281 282 283 284 284 285 285 284 284 285 285 285 285 286 285 286 286 286 286 286 286 286 287 287 287 286 286
264 263 263 263 263 263 263 262 262 262 262 262 261 261 261 261 261 261 261 261 261 261 261 261 261 261 261 261 262 262 262 262 263 264 265 266 267 268 269 269 270 270 271 271 271 271 271 271 271 272 273 274 275 276 277 278 279 280 281 282 282 283 284 285 285 285 285 285 285 285 285 285 285 285 285 285 285 285 285 286 286 286 287 286 286
263 263 263 263 263 262 262 262 262 261 261 261 261 261 261 261 260 260 260 260 260 260 260 260 261 261 261 261 261 262 262 262 263 264 265 266 267 268 268 269 270 270 271 271 271 271 271 271 271 272 272 273 274 275 276 277 277 278 279 280 281 282 283 284 285 286 286 286 286 286 286 285 285 285 285 285 285 285 285 285 285 286 286 286 286
262 262 263 262 262 262 262 261 261 261 261 261 261 261 260 260 260 260 260 260 260 260 260 260 260 260 260 261 261 262 262 263 263 264 265 266 267 267 268 269 269 270 270 271 271 271 271 271 272 272 273 273 273 274 275 275 276 277 277 278 279 280 282 283 284 285 286 286 286 286 286 286 285 285 285 285 285 285 285 285 285 285 285 285 285
262 262 262 262 262 261 261 261 261 261 261 261 260 260 260 260 260 260 260 260 260 260 260 260 260 260 261 261 262 262 263 264 264 265 265 266 266 267 267 268 269 270 270 270 271 271 271 271 271 272 272 272 273 273 273 274 275 275 276 276 277 279 281 282 284 285 286 286 287 286 286 286 286 286 285 285 285 285 285 284 284 284 284 284 284
262 262 261 261 261 261 261 261 261 261 260 260 260 260 260 260 259 259 259 259 259 259 260 260 260 261 261 262 263 264 264 265 266 266 266 267 267 267 267 268 269 269 270 270 270 270 270 271 271 272 272 272 273 273 273 274 274 274 275 275 276 278 280 282 283 284 285 286 286 286 286 286 286 285 285 285 285 284 284 284 284 283 283 283 283
261 261 261 261 261 261 261 260 260 260 260 260 260 260 260 259 259 259 259 260 260 260 260 261 262 262 263 264 265 266 266 266 267 267 267 268 268 269 269 269 269 270 270 270 270 271 271 271 272 272 272 272 273 273 273 273 273 274 274 275 276 277 279 281 283 284 285 285 285 286 286 285 285 285 285 284 284 284 284 283 283 283 283 282 282
261 261 261 261 260 260 260 260 260 260 260 260 260 260 259 259 260 260 261 261 261 262 263 264 264 265 265 266 266 267 267 267 267 268 269 269 270 270 270 270 270 271 271 271 271 272 272 272 272 272 272 272 272 273 273 273 273 274 274 275 276 277 278 281 283 283 284 285 285 285 286 285 285 285 284 284 283 283 283 283 283 282 281 281 281
261 260 260 260 260 260 260 260 260 260 260 259 259 259 260 260 261 261 262 262 263 264 265 266 266 266 267 267 267 267 268 268 268 269 270 270 270 270 270 271 271 271 271 272 272 272 272 272 272 272 272 272 272 272 273 273 273 274 274 274 275 276 278 280 283 283 284 284 284 285 285 285 285 284 283 283 283 283 282 282 282 282 281 280 280
260 260 260 260 260 260 260 260 260 259 259 259 259 259 259 260 260 261 262 262 263 264 265 266 266 267 267 267 267 268 268 268 269 269 270 270 270 271 271 271 271 271 272 272 272 272 272 272 272 272 272 272 272 272 272 272 272 273 274 274 275 276 276 279 281 283 283 283 284 284 284 285 285 284 283 283 282 282 281 281 281 281 280 280 280
260 260 260 260 260 260 259 259 259 259 259 259 259 259 259 259 259 260 261 262 263 264 264 265 265 266 266 267 267 267 268 268 269 269 270 270 271 271 271 271 271 271 272 272 271 271 270 270 270 270 270 270 270 270 271 271 271 272 273 274 275 275 276 277 280 282 283 283 283 283 283 283 284 284 283 282 282 281 280 280 280 280 279 279 280
260 259 259 259 259 259 259 259 259 259 259 259 258 259 259 259 259 260 260 261 262 262 263 264 264 265 265 266 267 267 268 268 269 269 270 270 271 271 271 271 271 271 271 270 269 268 268 268 268 268 268 268 269 269 270 270 271 271 272 273 274 274 275 276 278 281 282 282 282 283 283 283 283 283 282 282 281 280 279 279 279 279 279 279 279
259 259 259 259 259 259 259 259 258 258 258 258 258 259 259 259 259 260 260 260 261 261 261 262 263 264 264 265 266 267 267 268 268 269 270 270 270 271 271 271 270 269 269 268 267 267 267 267 267 267 268 268 268 269 269 270 271 271 272 272 273 274 274 275 276 279 281 282 282 282 283 282 282 282 281 281 280 279 279 278 278 278 278 278 278
259 259 259 259 259 258 258 258 258 258 258 258 259 259 259 259 260 260 260 260 260 260 261 261 262 263 264 264 265 266 266 267 268 268 269 270 270 270 270 269 268 267 267 267 267 267 267 267 267 267 268 268 268 269 269 270 270 271 272 272 273 274 274 275 276 277 279 280 281 281 282 282 282 281 281 280 279 278 278 277 277 277 277 277 277
258 258 258 258 258 258 258 258 258 258 258 259 259 259 259 259 259 260 260 260 260 261 261 261 261 262 263 263 264 265 265 266 267 268 269 269 270 269 268 267 267 267 267 267 267 267 267 267 267 268 268 268 268 269 269 270 271 271 272 272 273 274 275 276 277 277 278 279 280 280 281 281 281 281 280 280 279 278 278 277 277 277 277 277 277
258 258 258 258 258 258 258 258 258 258 258 259 259 259 259 259 259 260 260 260 260 261 261 261 261 262 262 263 263 263 264 265 267 267 268 267 267 266 266 265 266 266 266 266 267 267 267 267 268 268 268 269 269 269 270 270 271 271 272 272 273 274 274 275 277 278 278 279 279 280 280 281 280 280 280 279 278 278 277 277 276 276 276 276 276
258 257 257 257 258 258 258 258 258 258 258 258 258 259 259 259 260 260 260 260 261 261 261 261 262 262 262 262 262 263 264 265 265 265 264 264 263 263 264 264 265 265 266 266 266 266 267 267 267 268 268 269 269 270 270 271 271 272 272 272 273 273 274 275 277 278 279 279 280 280 280 280 280 280 279 279 278 277 276 276 276 275 275 275 275
257 257 257 257 257 258 258 258 258 258 258 258 258 259 259 259 259 260 260 260 260 261 261 261 262 262 262 262 262 263 264 264 263 262 262 261 261 262 262 263 263 264 264 264 264 264 265 265 266 266 267 268 269 269 270 271 272 273 273 273 273 274 274 275 276 277 278 279 280 280 280 280 279 279 279 278 277 276 276 275 275 275 274 274 274
257 257 257 257 257 257 257 257 257 257 258 258 258 258 259 259 259 259 260 260 260 260 261 261 261 261 261 261 262 264 264 263 262 261 261 261 261 261 261 262 262 262 262 262 263 263 263 264 264 265 266 266 267 268 269 271 272 273 274 274 274 274 275 276 277 278 279 279 280 280 279 279 279 278 277 277 276 276 275 275 274 274 274 274 274
257 256 257 257 257 257 257 257 257 257 257 258 258 258 259 259 259 259 259 259 260 260 261 261 261 261 261 262 263 264 263 261 261 260 260 260 260 261 261 261 261 261 261 262 262 262 263 263 264 264 265 265 266 267 269 270 271 273 274 275 275 275 276 276 277 278 279 279 279 279 279 278 278 277 276 275 275 275 274 274 274 274 274 273 273
256 256 256 257 257 257 257 257 257 257 257 258 258 258 258 259 259 259 259 259 260 260 260 260 260 260 261 261 263 263 262 260 260 260 260 260 260 260 261 261 261 261 261 261 262 262 262 263 263 264 264 265 267 268 269 271 272 273 275 275 275 275 276 277 277 278 279 279 279 278 278 277 277 276 275 275 274 274 273 273 273 273 273 273 272
256 256 257 257 257 257 257 257 257 257 257 258 258 258 258 258 258 259 259 259 259 260 260 260 260 260 260 261 261 261 261 260 260 260 260 260 261 261 261 261 261 261 262 262 262 263 263 263 263 264 265 266 267 268 269 271 273 274 275 276 276 276 277 277 277 278 278 277 277 277 276 275 275 274 274 274 273 273 273 272 272 272 272 272 272
256 257 257 257 257 257 257 257 257 257 257 257 258 258 258 258 258 258 259 259 259 260 260 260 260 260 260 260 260 260 260 260 261 261 261 261 261 261 261 261 262 262 262 263 263 263 263 264 264 265 265 266 267 268 269 271 273 274 275 276 276 276 276 276 276 276 277 276 275 275 274 274 274 273 273 273 272 272 272 272 272 272 271 271 271
257 258 258 258 257 257 257 257 257 257 257 257 257 258 258 258 258 258 258 259 259 260 260 260 259 259 260 260 260 260 260 261 261 261 261 261 261 261 261 262 262 262 263 263 264 264 264 264 265 265 266 266 267 268 268 270 271 272 273 274 274 274 274 274 274 275 275 275 274 273 273 273 273 272 272 272 272 272 272 271 271 271 271 270 270
258 259 259 258 257 257 257 257 257 257 257 257 257 258 258 258 258 258 258 259 259 259 259 259 259 259 259 259 260 260 260 260 261 261 261 261 261 261 262 262 262 263 263 264 264 264 265 265 265 265 266 266 267 267 268 269 270 271 272 272 272 273 273 273 273 273 273 273 273 272 272 272 272 272 272 271 271 271 271 271 271 270 270 270 269
259 260 260 258 257 257 257 257 257 257 257 257 257 257 257 258 258 258 258 258 258 258 259 259 258 259 259 259 259 260 260 260 260 260 261 261 261 261 262 262 263 263 264 264 264 265 265 265 266 266 266 266 267 267 268 269 269 270 270 270 271 271 272 272 272 272 272 272 272 272 271 271 271 271 271 271 271 271 270 270 270 270 269 269 269
261 261 260 259 258 257 257 257 257 257 257 257 257 257 257 257 258 258 258 258 258 258 258 258 258 258 258 258 259 259 259 260 260 260 260 261 261 261 262 263 263 263 264 264 265 265 266 266 266 266 267 267 267 267 267 268 268 269 269 269 270 270 271 271 271 271 271 271 271 271 271 271 270 270 270 270 270 270 269 269 269 269 269 269 269
261 261 261 259 258 257 257 257 256 256 256 257 257 257 257 258 258 258 257 258 258 258 258 258 258 258 258 259 259 259 259 259 260 260 260 261 261 261 262 263 263 264 264 264 265 265 266 266 267 267 267 267 267 267 267 268 268 268 268 269 269 270 270 270 270 270 270 271 271 271 270 270 270 270 270 270 269 269 269 269 269 269 268 268 268
261 261 260 259 258 257 257 256 256 256 257 256 257 257 258 258 258 258 258 258 258 258 258 258 258 258 259 259 259 259 259 259 260 260 260 261 261 262 262 263 263 264 264 264 265 265 266 266 267 267 268 268 268 268 268 268 268 268 268 268 269 269 269 269 270 270 270 270 270 270 270 270 269 269 269 269 269 269 268 268 268 268 268 268 267
261 260 260 259 258 258 258 257 257 257 257 257 257 257 257 258 258 258 258 258 258 258 258 258 258 258 259 259 259 259 259 260 260 260 261 261 261 262 262 263 263 263 264 264 265 265 266 266 266 267 267 268 268 269 269 269 269 269 268 268 268 268 269 269 269 269 269 269 269 269 269 269 269 269 269 268 268 268 268 268 268 268 267 267 267
Wind_Speed
4 3 3 3 3 4 5 6 7 9 10 10 11 12 13 14 14 15 15 16 16 17 18 18 20 21 22 24 25 26 27 27 27 27 27 26 25 24 23 22 21 21 21 21 21 21 22 23 24 24 24 25 26 26 26 27 27 28 28 29 31 31 30 26 17 19 26 26 26 28 28 30 34 37 41 43 45 46 47 48 50 50 51 52 52
3 2 2 2 2 3 4 6 6 8 9 9 9 10 11 12 13 14 15 15 16 17 17 18 18 19 20 22 23 24 25 26 27 28 29 29 29 28 27 26 25 24 23 23 23 22 22 23 24 25 24 25 27 26 26 27 26 28 29 28 30 30 29 28 24 19 24 27 25 26 28 29 34 38 39 42 45 46 47 49 50 50 52 53 53
1 2 3 4 5 5 7 8 7 9 10 10 11 11 12 12 13 14 15 16 17 17 18 19 20 21 22 23 24 24 25 26 27 27 28 29 30 31 30 29 28 27 26 25 25 24 24 24 25 25 24 25 27 27 27 27 26 28 29 28 29 30 28 29 28 24 24 27 26 26 27 29 34 37 38 41 44 45 47 50 50 50 52 53 53
4 6 7 8 9 9 10 10 9 11 12 12 13 13 13 14 15 17 17 18 19 19 19 21 22 23 25 25 26 26 26 27 27 28 28 28 29 30 30 30 30 30 29 28 27 26 25 26 26 26 25 25 27 28 27 28 28 28 29 29 29 30 29 28 30 30 27 27 28 26 26 29 33 35 36 39 41 43 46 47 47 48 50 51 52
8 9 11 12 13 13 14 13 12 13 13 13 14 14 14 15 17 18 19 20 21 21 22 22 23 24 26 26 27 27 27 27 28 28 29 29 29 29 29 29 30 31 31 31 30 29 27 27 28 27 26 26 27 28 28 28 28 28 29 30 29 29 30 29 31 33 30 29 29 27 25 27 30 32 34 36 37 38 41 43 44 45 46 47 49
11 12 14 16 18 19 20 20 20 19 19 18 19 19 20 21 22 23 24 24 25 25 26 26 26 27 28 28 28 28 28 28 28 29 30 30 29 29 29 29 30 30 32 32 32 32 31 30 30 29 27 27 28 29 28 27 28 28 29 30 29 29 29 29 30 31 31 32 31 28 26 27 29 30 32 35 35 35 36 38 40 42 42 42 44
12 13 15 17 18 20 21 23 24 24 23 23 24 25 26 27 28 30 30 30 30 30 31 32 32 32 32 32 31 31 30 30 30 30 30 30 30 30 31 31 32 32 32 33 33 34 34 34 33 32 30 30 30 30 29 28 28 28 29 29 28 27 28 28 29 29 30 31 30 29 27 26 28 30 32 33 35 36 35 31 31 35 37 38 40
15 16 17 18 19 20 21 22 23 23 23 23 25 26 28 29 30 31 32 32 32 33 34 35 36 36 36 35 35 34 33 33 33 31 30 30 30 31 32 32 33 34 34 34 34 35 35 36 36 36 34 33 33 32 31 30 29 29 30 29 27 26 26 26 26 26 27 27 28 28 26 25 26 28 28 27 27 31 31 27 26 29 32 35 39
16 17 17 17 18 18 19 21 22 22 22 23 24 26 27 29 31 32 33 33 33 34 35 35 36 36 36 37 36 35 35 35 35 33 31 31 31 31 31 31 32 33 34 35 36 36 37 37 37 38 37 36 36 34 33 32 30 31 32 30 27 26 26 26 25 24 24 24 25 26 23 22 24 24 24 25 27 28 28 28 30 31 30 31 37
15 15 16 16 16 17 19 20 21 23 24 25 26 27 29 30 32 33 34 35 35 36 36 36 35 35 36 36 36 36 35 37 38 38 34 31 31 31 31 32 32 32 33 35 36 38 38 38 38 39 38 38 38 37 37 35 34 34 34 33 31 29 28 26 25 24 23 21 23 24 19 19 24 25 23 27 31 29 27 29 30 29 24 23 29
13 14 16 17 18 20 21 22 24 25 26 26 27 28 29 30 31 32 34 35 36 36 36 37 37 36 35 35 36 37 38 40 42 40 35 31 31 32 33 34 34 33 33 34 36 37 38 39 39 39 39 39 39 39 39 38 37 37 36 36 35 33 31 30 28 27 24 22 24 25 19 20 27 26 24 27 29 29 30 30 28 26 22 18 18
14 15 17 19 20 21 22 23 24 24 24 25 26 27 28 30 31 32 33 35 36 37 37 37 38 39 37 37 38 39 41 44 44 39 35 32 32 33 34 35 35 35 36 35 36 37 38 39 39 39 40 40 40 39 39 40 40 39 39 38 37 36 35 35 33 31 28 25 25 26 24 25 28 26 24 26 27 29 31 30 29 29 26 22 19
17 18 18 18 19 20 20 21 21 22 22 23 25 27 28 30 31 32 33 35 36 37 38 38 39 39 38 38 39 40 43 47 45 39 35 34 33 33 34 35 35 36 37 37 38 38 38 38 38 39 40 40 40 39 39 40 40 40 40 40 39 39 38 38 38 37 35 31 27 29 32 31 29 29 27 25 26 28 29 29 31 31 27 26 29
19 20 19 18 18 18 18 19 20 22 24 25 27 28 29 31 31 31 33 34 35 36 37 38 38 39 38 37 38 40 43 46 44 39 36 35 35 35 35 35 36 37 38 39 39 39 39 39 38 39 40 40 40 39 39 40 39 39 39 39 40 41 40 40 39 39 39 37 34 36 40 38 34 35 32 26 26 29 29 29 30 31 31 34 37
19 19 19 18 17 17 18 20 23 25 27 28 30 31 31 32 32 31 31 32 33 34 35 36 37 38 38 36 37 40 43 44 40 38 37 36 36 35 35 36 36 37 39 40 41 41 41 40 40 40 41 40 40 40 41 40 40 39 39 39 41 42 42 42 41 40 40 40 39 41 46 44 40 39 36 30 29 31 30 31 32 33 35 37 37
17 17 17 16 17 18 21 24 26 27 29 31 32 33 32 32 31 31 32 33 33 32 33 34 36 38 38 37 37 40 44 43 38 36 37 36 36 36 36 37 38 39 40 41 42 42 42 41 40 40 40 42 43 42 41 40 40 39 39 40 41 41 42 44 44 43 41 40 40 42 45 46 42 40 38 33 32 33 31 29 31 31 30 26 25
14 14 15 16 18 21 23 25 28 29 31 32 33 33 32 33 33 31 32 34 34 34 34 35 36 37 37 37 36 39 43 42 36 35 36 35 35 35 36 37 39 40 42 42 42 43 43 42 41 41 42 43 43 42 39 38 38 39 39 40 40 39 41 44 44 44 43 43 42 42 44 45 42 40 39 35 34 34 29 25 27 27 23 15 14
13 14 16 18 20 22 23 25 28 29 30 31 32 33 33 33 33 31 31 34 36 36 36 37 39 37 34 35 34 35 40 39 34 33 34 33 32 33 35 37 39 41 42 43 43 44 45 44 42 42 42 43 43 41 40 39 39 39 39 38 38 36 39 42 41 41 42 42 42 41 42 43 41 39 38 35 34 33 30 29 29 26 21 16 15
15 17 19 20 21 22 24 25 26 27 29 30 31 32 33 33 33 32 32 33 36 38 37 37 39 37 33 33 33 33 36 38 34 32 32 32 31 31 33 35 37 38 38 39 41 42 43 43 43 42 42 43 43 42 41 40 40 40 40 38 35 36 39 41 39 39 39 39 39 39 39 40 39 37 37 37 36 35 35 35 33 27 24 24 21
18 19 20 21 22 23 24 24 25 26 28 30 31 31 31 32 32 33 34 34 35 37 36 35 37 37 34 33 33 32 34 36 34 30 30 30 30 30 31 32 33 34 35 36 37 40 41 41 41 41 41 43 44 44 43 42 41 41 41 38 36 38 41 41 39 38 37 37 38 38 37 37 36 34 35 36 36 36 38 39 36 33 30 28 25
19 20 21 22 23 24 24 24 25 26 26 28 30 31 30 31 32 33 35 35 35 36 36 34 35 36 33 32 33 32 32 33 32 30 29 29 29 29 30 31 31 34 37 36 35 36 37 37 37 38 38 40 42 42 43 42 42 42 42 40 40 42 43 41 39 38 36 36 37 36 35 34 32 31 32 33 34 35 36 38 39 37 36 33 28
20 21 22 23 23 24 25 24 25 26 27 27 29 32 31 31 31 32 33 35 35 35 35 34 34 35 33 32 32 32 30 30 31 30 29 29 30 29 30 32 31 33 36 35 32 33 34 34 35 36 37 39 40 41 40 40 39 40 41 42 43 43 43 41 39 37 35 34 33 32 31 31 30 30 30 31 32 33 33 35 37 38 39 40 35
21 21 22 24 25 25 25 25 25 26 27 27 28 31 32 31 31 31 31 33 34 34 33 33 33 33 33 32 31 31 31 30 30 30 30 30 31 31 31 32 33 33 34 34 33 33 34 35 36 37 39 40 42 42 42 42 42 41 42 42 43 43 42 40 38 36 34 33 30 28 29 29 29 28 29 31 32 32 31 31 34 35 37 39 40
21 23 24 25 26 26 26 26 26 27 27 27 28 30 31 31 31 30 29 30 31 32 31 31 31 31 31 32 32 31 32 33 32 32 31 31 32 32 33 33 34 34 34 35 34 33 34 36 37 37 39 41 42 43 44 43 43 42 42 43 44 44 42 39 37 35 32 30 28 27 28 29 29 29 31 31 29 27 28 30 31 33 35 36 37
22 24 25 26 26 27 27 27 27 27 26 26 27 29 30 30 30 29 29 29 30 30 30 30 30 30 30 31 32 33 34 34 35 35 33 32 32 32 33 33 33 33 35 35 35 35 37 39 39 39 39 39 40 40 39 39 37 37 39 40 41 42 41 39 37 34 31 28 26 26 28 29 31 32 32 29 26 25 26 28 29 30 31 32 32
23 25 26 27 27 28 28 28 28 27 26 26 26 28 29 30 29 29 29 29 29 30 30 29 29 30 29 30 32 34 34 34 34 34 32 32 32 33 33 33 34 34 35 36 36 37 38 38 39 39 38 37 36 36 36 37 38 38 39 39 39 38 38 37 36 33 30 28 26 25 28 30 31 31 29 26 25 26 26 26 26 27 29 29 28
24 25 26 28 28 28 28 28 28 28 27 27 27 28 29 29 28 28 29 29 29 29 29 28 28 27 27 29 31 32 32 31 31 31 31 31 32 33 34 34 34 33 33 33 34 36 37 37 37 38 38 37 37 37 36 37 37 38 38 38 38 38 38 38 38 35 31 30 28 26 29 30 28 27 25 25 26 27 26 26 25 25 26 26 23
23 26 27 27 28 27 27 28 28 28 28 28 27 29 30 29 28 28 30 30 29 28 28 28 30 29 27 27 29 29 28 29 29 30 30 31 31 31 30 30 29 29 30 32 34 35 36 36 35 35 35 34 34 33 33 33 34 35 36 36 37 39 39 39 39 36 31 30 28 27 27 27 26 25 25 25 25 26 26 26 26 25 25 23 19
24 26 27 27 27 27 26 27 27 28 29 28 28 30 31 29 27 29 31 30 27 28 30 29 30 30 29 29 29 27 25 26 29 30 31 32 33 32 31 31 31 31 31 33 35 35 33 32 31 31 30 30 29 28 28 29 30 31 32 33 34 35 36 36 36 34 29 27 26 25 25 24 24 25 24 23 25 25 25 26 26 24 22 21 18
25 26 25 26 26 27 26 27 27 27 28 28 28 31 34 31 26 25 29 30 27 26 28 29 30 31 31 31 30 28 28 30 32 33 34 34 35 35 35 34 34 33 32 33 34 32 29 27 27 26 26 25 23 23 23 23 24 26 28 30 31 31 33 34 32 32 29 27 25 23 22 22 22 22 22 22 23 23 24 26 26 24 21 20 18
24 25 25 25 26 26 26 27 27 26 27 27 27 28 33 37 33 24 21 23 25 26 26 28 29 29 29 30 30 30 31 33 35 35 35 34 34 34 34 34 33 32 32 32 30 25 22 21 21 21 21 20 20 21 22 22 23 24 24 27 29 29 29 31 29 27 26 26 26 23 21 20 19 19 21 21 20 20 22 24 24 23 22 21 18
24 25 25 25 26 26 25 26 26 26 26 27 26 25 27 33 37 33 24 19 21 24 26 26 26 26 26 28 30 31 32 32 34 35 34 33 33 33 33 33 32 31 30 28 24 20 20 20 21 21 21 21 21 23 24 24 25 26 24 24 28 29 28 30 30 25 22 21 22 21 20 19 18 17 19 20 18 18 20 21 22 22 21 20 19
23 24 25 25 25 25 25 25 24 24 25 25 26 26 24 24 29 36 37 33 28 24 22 22 23 25 28 29 30 31 32 32 33 34 33 33 33 33 34 32 30 28 27 25 21 21 22 23 23 23 23 23 24 25 26 26 27 28 26 24 27 30 31 32 31 26 24 21 19 19 19 21 20 17 16 18 19 19 19 20 21 21 19 17 16
22 23 23 23 24 25 25 24 24 24 25 25 25 25 25 24 23 27 33 37 37 33 28 24 23 24 28 31 31 31 32 32 32 32 32 33 34 34 33 30 26 25 26 25 22 23 23 23 24 25 26 26 27 27 27 27 28 29 29 28 28 30 31 31 29 24 21 19 17 17 17 19 20 18 16 17 18 19 19 19 20 19 17 16 14
21 21 22 21 22 23 24 24 24 25 25 25 24 23 24 25 24 24 24 27 30 33 36 37 34 31 30 31 32 31 32 33 33 32 32 32 34 33 30 26 23 24 26 26 25 25 24 25 27 28 28 28 29 29 29 29 28 27 28 28 28 27 27 27 27 24 20 16 15 15 16 17 20 20 19 18 18 17 17 18 19 19 18 17 15
21 22 22 21 21 22 23 24 24 24 24 23 24 24 24 24 24 24 24 24 25 27 32 37 41 39 34 31 30 31 32 33 33 32 31 30 30 29 25 22 22 23 24 24 25 26 27 28 28 29 30 30 31 31 30 30 29 27 27 27 26 25 25 25 24 22 21 19 17 17 18 18 20 21 20 19 19 19 19 19 20 19 19 18 16
21 21 21 21 21 22 23 23 23 23 23 23 23 24 24 24 23 23 23 23 24 25 27 31 35 37 35 33 32 32 33 33 32 30 28 26 26 25 23 22 23 23 23 24 25 26 28 29 29 30 31 31 31 33 32 31 31 30 29 28 27 26 26 26 24 22 21 20 20 19 19 20 21 22 20 18 19 19 19 19 19 18 18 18 16
20 20 20 20 21 21 21 22 22 22 22 23 23 23 22 22 22 22 22 22 23 24 25 27 27 28 31 34 34 34 33 32 30 28 28 27 26 25 23 23 23 22 23 25 25 25 27 28 28 29 30 31 32 34 34 34 33 31 29 28 27 26 26 26 24 23 22 21 20 19 20 21 22 23 22 20 19 18 18 19 18 16 16 17 16
20 20 20 19 18 18 19 20 21 22 22 21 21 21 21 21 21 21 21 22 22 23 24 24 23 24 27 30 32 32 29 26 26 27 28 28 27 26 25 25 24 23 24 26 27 26 27 28 29 30 30 30 31 32 32 32 30 28 26 25 24 24 24 24 23 22 21 21 20 19 21 22 22 22 23 22 20 19 18 19 19 18 17 16 16
20 21 20 19 17 18 18 19 20 20 20 20 20 20 20 20 21 21 21 22 22 22 23 23 23 25 27 27 28 28 25 22 24 26 27 26 27 27 26 25 25 25 26 27 27 28 28 30 32 33 32 31 31 30 30 28 26 24 23 22 21 21 22 22 22 21 21 20 20 20 21 21 21 20 21 20 19 20 20 19 19 19 18 17 17
19 20 20 18 17 18 19 19 19 19 19 19 19 20 19 20 21 22 22 22 22 22 23 23 24 26 27 25 25 25 23 21 23 24 24 24 25 25 25 25 26 26 27 28 29 29 30 32 33 34 33 32 31 31 30 28 25 22 22 21 21 20 20 21 22 22 22 21 21 20 20 20 20 20 19 19 18 19 19 18 18 17 17 16 16
18 19 18 17 17 18 18 19 19 20 20 19 19 19 20 21 22 23 22 22 22 22 23 24 25 27 26 25 24 24 22 21 22 23 23 24 24 24 25 26 26 27 28 29 29 30 30 31 32 33 32 31 30 30 28 25 22 21 20 19 19 19 19 20 22 23 23 22 21 20 19 19 20 19 18 18 18 19 18 18 17 17 16 16 17
17 16 16 15 16 16 17 18 19 19 19 19 19 19 20 20 22 22 22 22 22 22 22 24 26 27 27 26 24 24 24 23 23 23 24 24 25 25 26 27 28 28 28 28 28 29 29 29 31 32 32 30 27 26 24 18 13 14 16 17 17 18 18 17 16 18 18 16 16 16 16 16 17 17 17 18 18 18 18 18 17 17 17 17 17
15 14 14 14 15 15 15 16 17 18 18 18 18 19 19 20 21 22 21 21 22 22 22 24 25 26 27 27 27 26 26 25 25 25 25 26 26 27 28 29 29 29 29 29 29 29 29 29 29 31 31 29 27 25 24 21 15 9 7 8 8 9 10 10 10 12 13 13 14 14 15 16 16 17 17 18 19 19 18 18 18 18 17 17 17
13 12 13 13 14 15 16 16 16 16 17 18 18 19 19 20 20 21 21 21 22 22 22 23 24 25 25 27 27 27 26 26 26 26 26 27 27 28 29 29 30 30 30 29 30 29 29 29 29 30 30 30 29 28 27 25 22 19 14 9 6 5 4 3 5 7 10 12 14 15 17 17 18 18 19 19 19 19 19 18 19 18 18 18 17
11 11 12 13 14 15 16 16 17 16 17 18 18 19 19 20 20 20 20 20 21 21 22 24 25 25 25 26 26 26 27 27 27 27 27 28 28 29 29 30 30 30 30 30 30 30 30 30 30 30 30 30 30 30 30 29 26 23 20 16 12 10 8 6 5 6 8 10 13 16 17 17 17 18 19 19 18 18 18 18 18 19 18 18 18
10 10 11 11 13 14 15 15 16 16 17 17 17 18 18 19 19 19 20 20 21 21 22 24 25 25 26 26 26 26 26 26 27 27 27 28 29 29 29 30 30 30 31 31 32 32 32 31 31 32 32 32 32 31 31 30 28 25 22 19 15 13 10 9 8 9 10 12 14 16 17 18 17 18 18 19 19 19 19 18 19 19 19 19 19
10 10 10 10 11 12 14 14 15 16 17 17 17 18 18 18 19 19 20 20 21 22 23 24 25 25 26 26 26 26 26 26 27 27 28 28 29 29 29 30 30 30 31 32 33 34 34 34 33 32 32 33 34 33 31 29 28 26 24 21 17 15 13 12 12 13 13 13 15 16 18 19 19 18 18 19 20 20 20 20 20 20 20 20 20
10 9 9 9 10 11 12 12 13 14 15 16 17 17 18 18 19 19 20 20 21 21 22 23 24 25 25 26 26 27 27 27 27 28 28 29 29 29 29 29 30 30 31 32 33 33 34 34 34 34 32 31 32 32 32 30 28 26 24 21 18 16 15 14 15 15 15 15 16 18 19 20 20 20 20 20 21 21 22 22 21 21 22 21 21
9 8 8 8 9 10 10 11 11 12 13 14 15 17 17 18 18 19 19 20 21 21 21 22 22 23 24 25 25 26 26 27 27 27 27 28 28 29 29 29 29 30 30 31 31 32 33 33 34 34 34 32 31 30 30 31 29 26 24 21 19 18 17 17 16 16 16 17 18 19 20 21 22 21 21 21 22 23 22 22 22 22 22 22 21
8 8 8 8 8 9 10 10 11 12 13 13 14 15 16 16 17 17 18 18 19 20 21 21 21 22 22 23 23 24 24 25 25 26 26 27 27 28 29 29 29 30 30 30 30 30 31 32 32 33 34 34 32 31 30 29 28 26 24 23 22 20 20 19 18 18 18 18 19 20 21 22 22 22 22 22 23 23 23 23 22 22 22 22 22
Wind_Direction
75 67 58 44 19 6 1 2 5 5 4 5 4 4 2 359 357 355 354 352 350 349 347 346 344 342 340 340 339 339 338 338 339 338 337 338 338 338 338 336 332 327 321 314 309 306 303 301 298 296 297 298 295 293 290 288 285 281 276 271 266 261 257 253 257 272 270 262 260 261 260 257 255 253 252 251 249 246 243 242 240 239 238 238 237
79 71 56 22 350 337 335 334 339 346 349 348 346 346 345 345 344 342 342 342 340 339 338 338 337 336 335 334 333 333 333 332 332 332 332 332 332 332 333 333 331 328 325 321 317 313 308 303 299 297 297 296 294 293 290 288 286 281 278 273 268 264 260 255 256 267 273 269 263 260 258 253 251 253 251 250 251 249 246 244 241 238 238 238 238
5 358 355 355 351 345 341 335 325 328 333 332 331 330 328 329 330 329 329 330 330 329 328 328 329 328 327 327 327 326 326 327 326 327 327 327 327 326 326 325 324 323 321 320 319 318 314 309 305 302 301 298 295 293 290 288 285 281 279 275 271 268 263 257 256 260 270 274 268 261 258 253 251 254 253 252 252 249 246 246 243 240 238 237 237
335 342 342 345 346 343 342 339 326 322 325 324 324 324 321 320 320 321 321 321 322 322 321 320 321 321 320 321 321 320 320 320 320 320 321 322 321 320 319 318 317 316 314 314 314 315 313 311 309 308 304 298 295 292 290 287 284 281 279 277 273 270 268 262 257 257 264 273 270 263 260 257 255 255 253 251 249 245 243 244 242 239 238 236 235
337 338 337 336 338 337 337 335 329 325 323 321 322 322 319 316 316 318 317 316 316 316 315 315 314 313 314 314 314 314 314 314 314 314 315 315 314 313 312 311 309 309 308 308 308 308 307 307 307 309 304 297 294 291 288 286 283 280 278 276 273 271 269 265 261 259 260 265 269 268 263 259 258 256 251 247 244 242 241 241 239 238 237 236 235
331 331 330 329 329 330 330 328 326 326 325 325 325 325 324 322 320 320 319 317 316 315 314 313 312 311 311 310 309 309 310 309 308 309 309 310 309 307 306 305 304 303 303 303 304 303 302 302 302 303 301 295 292 291 287 284 281 278 275 274 272 270 268 265 262 260 259 262 268 268 263 257 255 254 252 248 244 241 238 238 238 237 236 235 234
317 318 319 318 318 319 320 319 317 318 320 322 322 322 322 321 320 320 320 318 316 316 316 315 314 313 312 311 310 309 308 307 305 305 306 306 306 305 304 303 301 300 299 299 300 300 300 299 297 296 295 293 292 291 288 283 279 276 273 272 270 268 266 264 262 260 260 263 266 266 264 260 254 252 252 250 245 241 236 233 236 236 234 233 233
315 316 314 313 313 313 312 311 310 311 313 314 314 313 314 314 315 316 316 316 315 315 315 314 314 313 312 311 311 310 308 306 304 303 303 303 303 302 301 300 298 297 297 296 296 296 295 295 294 293 292 290 290 290 288 284 278 275 273 271 268 266 263 262 262 260 259 262 265 265 265 261 254 249 246 241 237 237 233 228 233 237 235 234 234
324 322 319 318 317 315 312 309 307 308 310 310 308 308 308 309 311 311 312 313 313 312 312 312 311 311 310 310 309 308 306 304 303 303 303 302 301 300 298 297 296 295 294 294 293 292 291 290 290 290 290 289 287 286 285 283 278 273 273 271 266 263 262 261 260 258 258 259 263 265 263 260 253 244 235 228 228 234 233 226 231 236 234 234 236
327 325 325 325 323 320 315 311 309 309 310 310 309 308 308 308 308 308 309 309 310 310 311 310 309 309 308 308 306 305 302 300 300 301 302 301 300 300 299 297 295 293 291 291 290 289 289 288 287 287 287 286 285 283 282 281 278 274 273 271 265 261 260 258 256 255 255 255 259 261 260 258 254 245 236 234 233 234 231 223 226 231 226 230 240
320 320 321 321 319 318 315 312 311 310 311 311 310 309 308 308 308 308 308 308 308 309 309 308 308 307 307 306 304 302 300 298 299 300 299 298 298 299 299 297 296 293 290 287 286 286 286 286 285 285 284 283 282 282 281 280 279 277 275 272 267 261 257 255 255 254 252 253 256 259 257 257 258 251 244 241 235 231 229 224 223 223 215 217 237
318 317 318 318 317 316 315 313 313 313 314 312 310 309 309 308 309 309 309 307 307 307 306 305 305 304 304 303 301 300 298 297 297 298 298 299 299 299 297 296 294 292 289 287 284 283 283 282 282 281 281 280 280 280 279 278 278 277 276 274 270 264 258 255 254 252 251 251 254 257 256 256 260 257 248 243 236 230 229 226 222 221 218 220 228
323 322 322 321 319 317 316 316 316 315 315 313 310 310 309 309 309 309 307 306 305 304 302 302 301 300 300 299 298 298 296 296 297 299 300 301 301 300 297 295 292 289 288 286 284 282 281 280 280 278 277 277 277 277 276 276 277 276 276 275 272 268 262 258 255 252 250 250 251 255 255 254 258 258 252 247 240 230 225 224 223 223 223 226 231
324 325 325 326 325 323 321 318 316 315 314 312 311 310 310 309 308 307 305 303 302 301 300 300 299 297 297 297 297 296 295 295 297 300 302 303 302 301 298 294 291 288 285 283 282 281 280 280 279 277 277 275 274 273 273 273 274 274 273 273 271 269 266 262 257 254 251 248 247 251 254 253 254 256 255 251 244 235 227 225 225 224 226 232 237
322 323 324 326 327 323 319 316 315 314 313 312 311 310 310 308 307 307 304 301 300 299 298 297 297 296 297 297 297 296 294 294 298 301 303 303 303 301 299 295 291 288 285 283 281 280 279 279 277 276 276 275 273 272 271 271 272 272 271 270 269 269 267 263 261 258 253 249 246 249 254 255 253 255 255 252 250 248 243 238 235 232 232 236 239
323 323 323 324 321 317 316 314 313 313 312 312 311 310 310 309 307 307 305 302 300 298 297 296 295 296 297 298 298 297 294 295 299 301 302 303 302 301 298 295 292 288 285 283 282 280 279 277 276 275 275 274 274 272 270 269 269 269 268 268 268 267 265 264 264 262 258 255 251 251 255 257 255 256 256 252 250 253 253 247 240 234 231 235 238
326 323 318 316 313 312 312 311 311 312 312 312 311 310 310 308 308 308 306 304 302 300 299 298 296 296 298 299 300 298 296 298 301 303 303 303 302 301 298 294 291 288 285 283 282 281 279 277 276 275 274 274 274 273 271 269 267 265 265 265 265 264 264 265 265 263 261 260 257 256 258 259 258 257 257 253 249 249 248 243 236 230 226 230 236
323 317 313 312 311 310 310 311 311 311 311 311 311 310 309 308 308 308 305 302 301 300 300 299 298 298 299 299 300 298 297 299 303 304 304 303 302 300 296 293 290 286 285 284 283 281 279 277 275 274 274 274 274 274 272 270 267 264 262 262 262 261 261 262 262 261 261 260 259 257 258 259 257 256 256 253 250 246 240 237 236 230 224 227 233
316 312 311 310 309 309 311 312 312 312 311 311 310 309 308 307 306 305 303 300 299 299 300 300 299 300 301 301 300 299 298 300 303 304 303 303 301 299 296 293 290 287 287 286 284 282 280 279 277 275 275 275 274 274 273 270 267 264 261 260 259 258 258 259 258 257 257 256 256 254 254 256 255 254 254 253 251 246 240 239 238 230 225 230 232
311 310 309 309 310 313 314 314 314 312 311 310 309 307 306 305 305 304 302 300 299 299 299 299 299 300 302 302 301 301 300 301 302 303 303 302 301 300 298 295 293 293 292 289 287 286 285 283 281 279 277 276 275 274 273 271 269 267 263 258 255 256 258 258 256 255 254 253 253 253 253 254 254 252 252 252 250 246 242 241 238 231 228 232 230
310 310 311 312 314 316 317 315 314 312 310 309 308 305 304 303 303 303 302 301 300 299 299 300 299 299 302 302 301 301 301 301 301 303 302 301 300 299 297 295 294 294 293 290 288 289 288 287 286 284 282 280 277 275 272 269 267 266 263 258 256 257 258 258 257 256 253 250 250 250 251 251 251 250 250 249 248 246 243 241 239 233 230 231 229
315 315 315 316 317 318 318 316 315 313 311 309 306 304 304 304 302 302 301 300 299 299 299 301 300 299 301 301 301 301 301 300 300 301 301 300 299 297 294 292 292 291 290 289 289 290 290 291 290 289 287 286 283 281 277 273 270 267 264 261 260 259 258 257 257 255 250 247 245 244 244 246 246 246 247 246 246 245 243 242 240 237 234 233 231
319 318 318 318 318 318 318 316 315 313 311 310 306 304 304 304 302 301 300 299 299 299 300 301 301 300 301 302 302 302 302 301 299 298 298 298 298 296 293 292 291 289 287 287 288 289 290 291 291 290 288 286 284 283 283 281 279 275 271 266 263 261 259 258 255 250 245 242 240 238 238 240 240 242 244 244 245 244 243 243 243 240 239 238 235
321 320 320 320 319 319 318 317 315 313 312 311 307 303 303 303 301 300 299 298 297 297 299 301 300 300 301 302 302 301 302 302 300 297 296 296 297 297 294 293 292 290 287 286 287 288 288 289 289 290 288 285 282 281 281 281 280 279 278 275 270 265 261 257 254 249 242 236 234 233 235 236 237 239 242 243 245 245 244 246 247 244 243 242 239
322 322 322 321 320 319 318 316 315 314 313 311 306 302 302 301 299 298 298 297 296 296 297 298 298 298 297 298 299 300 301 301 299 298 296 295 296 296 294 293 292 291 288 287 287 287 288 289 291 291 291 289 286 283 282 282 282 284 287 287 283 274 264 257 254 251 243 235 231 230 232 235 236 239 243 244 245 245 243 244 245 244 243 243 241
323 323 322 320 320 319 317 315 315 315 313 310 305 301 300 298 296 297 297 295 294 294 294 295 296 295 294 294 295 297 299 298 297 298 298 297 295 293 291 289 289 289 289 288 288 289 290 290 291 290 290 290 288 286 285 284 284 286 287 289 288 281 269 257 252 249 244 238 234 231 232 236 238 240 243 241 238 239 238 237 238 239 238 238 237
324 322 320 319 318 318 316 315 315 313 311 309 306 303 301 298 296 295 294 294 293 292 292 292 291 290 290 292 294 295 297 298 298 299 299 295 291 288 284 282 282 282 283 284 285 286 286 285 286 287 287 288 287 286 285 285 285 284 284 284 284 282 275 261 250 245 241 238 237 235 234 236 238 237 236 233 231 234 234 231 231 233 233 231 231
323 319 318 318 317 316 315 314 313 311 310 309 307 304 302 300 297 296 294 293 290 287 286 286 287 288 289 291 293 294 295 296 298 297 295 292 289 288 287 286 284 282 281 281 283 283 282 282 284 286 287 287 286 284 284 286 286 284 282 282 281 282 280 267 251 243 240 236 234 236 235 233 233 232 230 228 228 230 230 226 225 228 226 221 221
321 318 318 317 315 315 313 312 311 310 309 308 307 305 303 300 296 296 296 293 287 285 287 287 288 291 291 291 294 295 293 294 298 299 298 297 297 296 295 292 290 287 286 288 290 289 288 287 286 286 286 284 284 283 282 284 285 283 283 283 281 281 282 271 249 236 236 235 231 232 231 229 230 230 226 224 226 226 222 220 221 222 218 213 216
319 316 316 315 313 314 312 311 310 310 308 308 308 309 308 305 298 292 292 293 291 290 292 294 295 296 295 295 296 296 296 299 302 303 302 302 302 302 301 300 298 297 297 298 297 293 291 289 287 287 287 285 284 285 284 285 287 285 285 286 285 284 286 277 249 228 228 235 234 233 232 228 228 226 220 219 223 221 216 216 217 214 208 206 213
315 313 313 312 312 312 310 309 310 309 308 309 309 309 310 311 309 300 288 290 297 299 298 298 298 299 300 301 301 301 302 303 304 305 305 307 307 308 308 307 306 306 305 304 300 296 294 295 295 294 294 292 291 291 290 290 290 288 287 288 285 283 285 282 262 234 223 228 230 231 235 233 227 222 218 219 219 213 209 211 212 209 206 207 211
311 309 310 310 311 310 309 309 309 309 309 311 310 309 308 310 313 314 307 298 299 302 303 303 303 304 305 305 306 306 306 306 306 308 310 312 311 311 310 310 310 310 310 310 308 305 304 302 300 298 296 292 290 290 288 286 285 285 284 284 284 281 282 283 274 251 229 226 225 223 228 235 236 230 222 217 213 206 203 204 205 204 205 208 211
311 309 309 310 310 309 308 309 309 308 309 309 309 308 306 305 309 314 316 316 314 309 305 304 307 310 311 310 310 309 309 309 311 312 313 313 312 311 311 312 313 314 314 313 308 302 299 297 295 293 292 289 287 287 285 283 281 281 278 276 278 280 281 285 281 260 235 229 230 225 223 228 234 236 226 214 207 202 200 201 202 202 202 205 207
312 309 308 309 308 308 308 308 308 309 309 307 305 304 304 303 303 307 312 317 320 320 315 310 310 313 314 314 313 314 314 314 315 314 314 313 312 312 314 316 315 314 313 309 302 296 294 293 291 289 288 287 285 284 282 280 279 279 277 275 275 275 277 282 284 271 246 230 229 231 229 224 223 224 221 211 204 201 200 200 199 198 199 200 199
315 311 310 310 309 308 308 308 309 309 307 305 305 303 303 305 305 303 304 307 311 314 314 315 317 319 318 317 318 319 319 318 317 317 316 314 314 316 320 320 316 312 309 304 299 296 293 291 290 289 287 286 284 282 279 277 276 274 274 274 273 272 271 272 273 270 260 245 235 238 240 232 220 215 213 209 203 200 200 199 198 197 198 197 192
317 314 313 313 312 310 309 310 310 309 306 305 306 306 304 304 303 303 303 302 302 304 307 313 317 321 322 322 323 322 322 320 319 317 317 316 318 322 324 319 311 306 303 300 299 297 294 291 290 289 287 285 283 281 278 275 272 270 269 269 269 268 270 269 266 262 258 250 243 242 240 230 218 211 209 209 208 206 204 200 198 198 197 194 190
318 316 316 316 315 313 312 312 311 309 307 307 307 307 306 306 306 306 305 305 305 306 308 312 317 321 323 327 329 327 325 323 322 321 322 324 327 327 324 317 310 305 302 302 302 300 297 295 293 291 289 286 284 283 281 277 274 270 267 266 265 263 265 267 267 264 255 244 238 237 233 223 214 210 209 209 208 208 205 199 195 195 195 192 187
320 319 318 317 315 314 314 315 314 313 311 311 311 310 310 310 311 311 311 310 311 312 312 314 318 320 322 326 329 329 328 328 330 332 332 334 334 332 327 321 316 311 309 308 309 306 303 301 300 298 295 292 289 287 284 280 276 271 265 261 258 256 258 261 263 263 256 242 231 228 227 221 213 208 209 210 208 204 199 193 189 187 186 185 182
326 325 323 320 317 317 317 316 316 316 315 315 316 317 316 315 316 317 316 317 317 317 317 318 319 322 323 325 327 328 330 334 337 334 330 330 332 330 327 325 322 318 315 314 314 312 309 306 306 304 300 296 294 290 287 282 276 268 260 254 251 249 251 254 258 258 251 239 226 219 219 217 211 206 207 210 206 199 191 188 187 184 181 182 184
330 329 327 325 322 321 323 322 321 320 319 319 321 322 321 321 321 321 321 321 320 320 322 322 322 325 327 327 329 332 334 335 332 328 324 325 327 327 326 326 323 320 318 316 316 315 312 310 310 308 303 299 296 293 290 286 280 272 262 252 245 243 245 249 255 255 245 232 221 214 210 208 206 205 207 206 201 194 188 185 186 185 183 182 180
331 326 326 328 330 331 331 330 327 325 325 325 326 327 327 326 326 325 325 324 323 323 324 324 325 328 331 332 336 341 340 333 327 326 325 325 326 326 326 326 324 322 321 319 319 318 315 313 314 313 309 304 300 297 293 286 279 275 267 255 244 241 244 250 254 249 236 222 214 210 207 205 203 202 200 195 190 187 184 181 181 180 177 174 171
329 324 326 334 340 340 336 333 331 332 333 333 333 334 333 332 332 331 329 327 327 326 326 327 330 333 336 337 341 345 343 337 333 333 333 333 332 332 332 332 331 329 328 326 325 323 320 318 318 320 320 316 311 309 306 295 279 270 265 254 244 243 248 251 244 231 219 211 207 204 202 201 199 195 188 182 178 176 174 171 170 168 166 165 164
325 325 332 342 347 345 340 337 336 336 337 337 337 339 341 340 338 336 332 331 330 331 331 331 333 336 340 343 345 347 347 346 344 342 341 341 341 341 341 341 341 340 338 337 336 333 330 326 326 330 334 333 329 331 337 334 307 280 269 258 250 249 251 245 228 211 204 199 194 191 189 186 182 176 170 168 167 165 162 161 160 160 159 158 158
325 332 343 350 352 349 345 343 341 339 339 341 343 347 348 346 342 340 338 336 335 335 335 335 336 338 342 346 350 352 351 351 350 349 347 347 346 346 347 348 348 348 347 347 347 346 344 342 341 343 349 352 353 356 6 17 19 360 321 283 260 251 244 229 211 200 195 187 179 174 170 167 164 161 159 160 158 156 154 154 154 153 153 152 151
330 341 350 355 355 351 348 348 346 343 344 347 351 354 355 351 348 346 344 341 340 339 338 339 341 341 343 347 351 352 352 352 353 353 352 351 351 351 353 354 355 355 355 354 355 356 356 356 355 356 358 4 9 13 19 29 37 40 38 38 43 55 78 138 172 180 181 176 167 160 156 155 155 154 153 154 154 152 151 151 151 149 148 148 147
339 350 355 358 357 352 349 349 349 348 351 353 354 355 354 354 353 351 348 346 345 342 341 343 345 346 347 349 351 352 353 354 355 355 356 356 356 356 358 360 1 2 3 2 3 3 4 5 7 8 8 10 16 22 28 33 38 43 47 50 54 59 65 75 101 130 147 152 149 146 144 143 144 146 146 147 147 145 144 144 145 144 142 142 141
347 355 360 2 358 352 350 351 350 351 354 356 356 354 352 352 354 354 352 351 350 348 347 348 348 348 349 350 351 352 354 354 356 357 358 359 0 1 3 5 7 8 9 10 10 11 11 11 13 15 18 20 22 26 31 36 39 42 45 49 54 62 71 80 94 110 124 133 137 137 134 130 129 133 136 137 137 136 134 135 136 137 136 136 134
350 356 2 4 360 353 350 351 352 352 355 356 355 354 353 353 355 355 354 352 352 352 351 351 351 352 352 352 352 354 355 355 358 0 2 3 4 6 9 11 12 12 13 15 16 16 17 17 17 18 21 25 28 30 33 37 41 43 45 46 50 57 68 81 93 103 115 124 128 129 128 125 124 125 128 129 130 129 128 128 129 130 130 130 131
348 355 360 360 358 353 350 349 350 352 354 355 354 354 355 356 356 355 354 353 353 354 354 355 355 356 356 356 357 358 359 359 1 3 4 5 7 9 12 15 17 18 18 18 19 20 21 23 23 23 23 25 28 32 35 38 41 44 47 49 52 57 66 78 88 97 106 114 118 121 122 121 120 120 122 124 125 125 125 125 126 127 127 127 128
343 351 355 355 354 350 348 349 351 353 356 356 354 354 355 355 356 356 355 354 353 354 355 357 358 359 359 359 360 0 2 2 2 4 5 8 10 12 14 17 20 22 22 22 22 23 25 27 28 29 29 28 29 32 35 38 40 43 46 50 55 61 68 76 84 92 100 106 111 115 118 118 118 118 120 122 124 125 125 126 127 128 128 127 127
338 345 349 350 350 348 349 352 354 356 358 358 355 354 353 353 354 355 354 353 352 353 354 357 359 360 0 1 2 2 3 5 6 8 10 11 13 14 16 18 20 22 24 25 26 26 27 28 30 32 34 34 34 34 36 38 40 42 45 50 55 60 67 74 81 87 94 102 108 111 114 115 116 117 119 122 125 126 125 127 129 129 129 128 129